Zurück zum Katalog

STARLINK-32200

AktivKommunikationVLEO
NORAD 60258·PAYLOAD·🇺🇸 United States

Gestartet Jul 27, 2024 von Cape Canaveral Space Force Station

Loading…

Nächste Überflüge (nächste 24 Stunden)

TLE

AktuellSource: CelesTrak SupGP

Epoche: Sep 14, 2026, 20:52 UTC

1 60258C 24131D   26257.86993056  .00051454  00000+0  15204-2 0  2579
2 60258  53.1571 252.0904 0001271  94.9329 344.0342 15.34361463    11

Verfolge STARLINK-32200 in Echtzeit mit AllMySat

Download on the App Store